Location: Br�cke
(56.2500°N, 12.5333°E)
Time: 07:16:50
(UTC+00:00)

Daily predictions for brighter satellites

Satellite Brightness Start Highest point End
(mag) Time Altitude Azimuth Time Altitude Azimuth Time Altitude Azimuth
USA 215 3.4 16:05:38 10° E 16:12:13 85° N 16:18:48 10° W
H-2A R/B 3.5 16:09:49 10° S 16:14:15 59° WSW 16:18:44 10° NNW
CZ-2D R/B 4.3 16:12:46 10° ESE 16:15:55 25° ENE 16:19:04 10° N
Cosmos 1953 2.4 16:12:14 10° SSW 16:16:13 88° WNW 16:20:14 10° NNE
NOAA 11 4.3 16:11:38 10° SE 16:16:57 58° ENE 16:22:18 10° N
Cosmos 1470 4.3 16:13:19 10° SW 16:16:58 38° WNW 16:20:39 10° N
USA 306 3.3 16:13:52 10° W 16:18:08 63° S 16:22:22 10° ESE
Cosmos 968 Rocket 3.9 16:15:21 10° NNW 16:20:22 43° NE 16:25:19 10° ESE
Cosmos 1818 3.6 16:15:30 10° SW 16:20:57 81° SE 16:26:27 10° NE
COSMOS 2455 4.1 16:17:07 10° WNW 16:22:30 32° NNW 16:27:54 10° NE
Cosmos 2297 Rocket 2.2 16:17:13 10° NNW 16:22:54 66° NE 16:28:33 10° SE
ERS-2 2.9 16:19:52 10° NNE 16:23:11 31° E 16:26:29 10° SSE
Meteor 1-11 4.3 16:18:02 10° NNW 16:23:48 83° ENE 16:29:34 10° SSE
Meteor 2-10 4.5 16:18:59 10° SSW 16:23:59 64° WNW 16:29:02 10° N
Cosmos 1420 Rocket 4.2 16:19:45 10° SSW 16:25:01 80° WNW 16:30:17 10° NNE
Cosmos 2369 Rocket 2.8 16:19:45 10° SW 16:25:23 60° NW 16:31:04 10° NNE
In-Cosmos 22 Rocket 4.5 16:20:48 10° N 16:25:52 42° ENE 16:31:00 10° SE
COSMOS 2487 4.5 16:23:11 10° NW 16:26:21 34° WSW 16:29:29 10° S
Cosmos 1340 3.3 16:23:29 10° N 16:27:00 35° ENE 16:30:30 10° SE
Aureole 3 Rocket 4.4 16:23:36 10° SE 16:27:19 26° E 16:32:07 10° NNE
Cosmos 371 Rocket 4.2 16:24:04 10° SW 16:28:47 51° NW 16:33:34 10° NNE
COSMO-SKYMED 1 3.7 16:25:30 10° NE 16:28:58 23° E 16:32:25 10° SE
H-2A R/B 1.9 16:27:05 10° NNE 16:31:19 81° ESE 16:35:26 10° SSW
CORIOLIS 4.3 16:28:28 10° SSE 16:33:50 83° WSW 16:39:15 10° NNW
FengYun 1-2 T 4.3 16:29:18 10° SSE 16:34:58 83° ENE 16:40:37 10° NNW
Cosmos 1110 Rocket 4.3 16:31:13 10° S 16:36:12 46° ESE 16:41:11 10° NE
Timation 2 Rocket 4.4 16:31:19 10° NW 16:37:51 77° WSW 16:44:36 10° SSE
Cosmos 1825 Rocket 3.7 16:34:02 10° NNW 16:38:32 85° WSW 16:42:58 10° S
Lacrosse 5 1.9 16:34:32 10° WSW 16:39:38 88° NNW 16:44:18 12° ENE
Cosmos 1486 Rocket 4.1 16:35:21 10° NNW 16:40:40 58° NE 16:45:55 10° SE
ADEOS Rocket 3.2 16:34:54 10° NNE 16:41:09 90° ENE 16:48:07 10° SSW
Meteor 2-21 Rocket 4.5 16:36:58 10° NNW 16:43:13 85° ENE 16:49:22 10° SSE
Envisat 4.3 16:40:30 10° S 16:45:22 45° W 16:50:16 10° NNW
Cosmos 292 Rocket 4.3 16:41:03 10° S 16:45:29 38° ESE 16:49:58 10° NE
Aureole 3 3.9 16:43:36 10° SE 16:45:59 21° E 16:48:22 10° NE
FALCON 9 DEB 3.7 16:42:40 10° WSW 16:46:00 49° S 16:48:52 13° ESE
Okean O Rocket 2.5 16:43:03 10° S 16:47:20 54° WSW 16:51:38 10° NNW
ERBS 2.2 16:45:15 10° W 16:48:36 82° N 16:51:09 16° E
YAOGAN 1 3.1 16:45:09 10° SE 16:49:09 38° ENE 16:53:10 10° N
Landsat 5 4.0 16:46:15 10° N 16:50:02 57° WNW 16:53:54 10° SSW
USA 281 4.1 16:43:45 10° S 16:50:09 53° WSW 16:56:35 10° NW
Cosmos 1503 Rocket 4.3 16:45:22 10° NNW 16:50:24 45° NE 16:55:25 10° SE
Cosmos 2219 3.3 16:47:24 10° NW 16:53:12 84° WSW 16:58:58 10° SSE
CZ-2C R/B 3.5 16:50:04 10° SE 16:55:33 49° ENE 17:00:54 10° N
Feng Yun 1-1 Rocket 4.5 16:49:44 10° SSE 16:55:40 89° WSW 17:01:39 10° NNW
SMAP 4.2 16:51:47 10° S 16:56:17 47° W 17:00:49 10° NNW
Cosmos 1455 4.4 16:56:06 10° ESE 16:56:10 10° ESE 16:56:10 10° ESE
Cosmos 1726 Rocket 3.6 16:55:09 10° S 16:59:26 59° E 17:03:47 10° NNE
Cosmos 1943 Rocket 3.6 16:54:28 10° W 16:59:26 32° NW 17:04:24 10° NNE
NOSS 2-1 (E) 3.7 16:57:10 10° WSW 17:00:35 55° NNW 17:04:07 13° NE
USA 307 3.5 16:56:46 10° W 17:00:57 52° SSW 17:04:41 13° ESE
Cosmos 2082 3.8 16:56:11 10° NNW 17:01:54 64° NE 17:07:36 10° SE
Cosmos 1354 Rocket 4.3 16:56:49 10° NNW 17:01:56 48° NE 17:07:02 10° SE
Cosmos 1553 Rocket 4.3 16:56:43 10° SSE 17:02:36 43° E 17:08:26 10° NNE
CZ-4B R/B 1.1 17:00:04 10° NNE 17:03:21 75° ESE 17:06:32 10° S
Meteor 2-10 Rocket 4.3 17:01:04 10° SSE 17:05:28 28° E 17:09:47 10° NNE
USA 308 3.6 17:01:36 10° W 17:05:46 51° SSW 17:09:20 14° SE
Cosmos 2228 2.9 17:02:13 10° S 17:06:30 86° E 17:10:49 10° NNE
Cosmos 1939 Rocket 2.8 17:03:06 10° SSE 17:07:04 89° WSW 17:11:00 10° NNW
Cosmos 2278 Rocket 4.1 17:03:12 10° NW 17:07:10 19° N 17:11:08 10° NE
ATLAS 5 CENTAUR R/B 2.5 17:04:59 10° W 17:09:17 46° NNW 17:13:29 14° NE
CZ-4 R/B 4.4 17:07:26 10° SSE 17:11:37 83° ENE 17:15:49 10° NNW
Cosmos 1452 Rocket 4.2 17:07:25 10° SW 17:12:37 58° NW 17:17:51 10° NNE
Helios 1A Rocket 2.8 17:10:06 10° SSE 17:14:13 81° ENE 17:18:21 10° NNW
Cosmos 1606 Rocket 3.6 17:10:40 10° SSW 17:15:03 85° W 17:19:32 10° NNE
SKYMED 2 3.6 17:13:06 10° NNE 17:17:24 55° E 17:21:40 10° S
GENESIS II 4.4 17:13:48 10° SSW 17:17:46 57° SE 17:20:06 23° ENE
Cosmos 1689 Rocket 2.2 17:16:34 15° NNE 17:18:47 46° E 17:21:34 10° S
Cosmos 2151 4.0 17:15:14 10° N 17:18:48 26° ENE 17:19:28 24° E
ARGOS 3.5 17:13:54 10° SE 17:19:00 43° ENE 17:24:07 10° N
SL-08 R/B 4.4 17:13:07 10° N 17:19:21 81° ENE 17:25:30 10° SSE
SJ-6B 4.4 17:20:42 20° NE 17:20:42 20° NE 17:23:35 10° N
Okean-O 2.5 17:16:16 10° SSE 17:20:42 82° ENE 17:25:10 10° NNW
Cosmos 1844 Rocket 4.2 17:16:40 10° NNW 17:20:59 22° NNE 17:23:39 16° NE
Cosmos 1745 Rocket 4.0 17:16:16 10° N 17:22:32 66° ENE 17:28:50 10° SSE
SL-08 RB Rocket 4.4 17:22:30 24° E 17:24:06 31° ENE 17:28:04 10° N
Cosmos 1656 4.1 17:19:00 10° S 17:24:09 40° ESE 17:28:36 14° NE
PSLV R/B 4.0 17:21:34 10° NNE 17:25:42 54° E 17:29:47 10° S
Cosmos 1400 Rocket 2.8 17:22:41 10° S 17:26:46 65° E 17:30:49 10° NNE
Cosmos 2227 Rocket 2.6 17:21:29 10° NW 17:27:06 65° WSW 17:32:42 10° SSE
Cosmos 2058 2.8 17:23:24 10° N 17:27:31 66° ENE 17:31:35 10° SSE
H-2A R/B 2.2 17:23:14 10° SE 17:28:34 61° ENE 17:33:57 10° N
Cosmos 1892 2.7 17:24:58 10° NNW 17:28:52 90° ENE 17:32:46 10° S
Ariane Rocket 3.8 17:27:38 25° E 17:29:20 31° ENE 17:33:46 10° N
GEOS 3 Rocket 3.8 17:24:33 11° SE 17:29:43 80° SW 17:35:10 10° NW
CZ-4 R/B 1.2 17:27:09 10° SSE 17:31:01 88° WSW 17:34:55 10° NNW
Timation 1 Rocket 4.3 17:26:32 10° NW 17:32:36 73° NE 17:37:24 17° SE
Cosmos 2263 Rocket 2.7 17:27:33 10° NNW 17:32:59 42° NE 17:35:33 27° E
Cosmos 1408 2.4 17:29:27 10° N 17:33:06 70° ENE 17:36:45 10° SSE
Cosmos 1386 Rocket 4.5 17:29:31 10° N 17:35:59 76° ENE 17:42:21 10° SSE
CSL-04 Rocket 3.6 17:31:22 10° SSE 17:36:53 71° ENE 17:42:22 10° NNW
NOSS 3-4 (A) 3.7 17:32:47 10° NW 17:39:26 75° NNE 17:44:11 24° ESE
NOSS 3-4 (C) 3.7 17:32:53 10° NW 17:39:33 75° NNE 17:44:16 24° ESE
CZ-4C R/B 3.0 17:34:02 10° WNW 17:40:17 55° NNE 17:44:25 26° E
Meteor 2-1 Rocket 4.3 17:38:29 10° SSE 17:43:44 48° E 17:49:03 10° NNE
Cosmos 1300 3.6 17:41:27 10° SSW 17:45:11 51° WNW 17:48:56 10° N
Cosmos 1346 Rocket 2.9 17:43:49 10° NNW 17:47:49 75° WSW 17:51:48 10° S
SL-4 R/B 2.7 17:44:48 10° WSW 17:48:08 37° S 17:49:04 31° SSE
Cosmos 2058 Rocket 3.2 17:43:57 10° SSW 17:48:28 79° WNW 17:53:01 10° N
Cosmos 1697 Rocket 3.2 17:43:45 10° S 17:48:47 35° ESE 17:49:37 33° E
Cosmos 1331 Rocket 4.3 17:44:19 10° SW 17:49:26 65° WNW 17:54:36 10° NNE
CRYOSAT 2 4.3 17:44:47 10° N 17:49:37 59° E 17:54:24 10° S
SeaSat 1 2.4 17:46:27 23° SE 17:49:39 81° NE 17:54:37 10° NNW
Cosmos 1825 2.0 17:46:17 10° N 17:50:06 71° ENE 17:51:38 34° SSE
CZ-2D R/B 4.4 17:46:26 10° S 17:50:06 45° W 17:53:47 10° NNW
USA 305 4.1 17:47:28 10° W 17:51:24 35° SSW 17:53:27 22° SSE
Cosmos 1709 Rocket 4.0 17:45:58 10° N 17:52:19 65° ENE 17:58:40 10° SSE
NOSS 2-1 (C) 4.4 17:49:33 10° W 17:52:52 35° NNW 17:54:31 25° NNE
USA 215 3.2 17:51:39 29° ESE 17:55:20 85° SSW 18:01:56 10° WNW
ERS-2 3.9 17:53:27 10° N 17:56:45 32° WNW 18:00:01 10° SW
SAR-Lupe-4 4.5 17:53:15 10° N 17:56:45 49° WNW 18:00:13 10° SW
Cosmos 44 3.1 17:52:19 10° SW 17:56:57 83° SE 17:59:04 34° NE
USA 306 4.2 17:53:53 10° W 17:57:46 33° SSW 17:59:35 23° SSE
Cosmos 1315 Rocket 3.8 17:54:03 10° S 17:56:20 31° SSE 17:56:20 31° SSE
NOSS 2-1 (D) 4.5 17:54:51 10° W 17:58:09 34° NNW 17:59:36 26° NNE
SJ-11-01 4.3 17:55:08 10° SSE 17:59:49 83° WSW 18:04:33 10° NNW
ATLAS 2AS CENTAUR R/B 2.8 17:53:53 10° NW 18:01:39 78° NE 18:05:17 33° ESE
BREEZE-M R/B 4.5 17:58:17 10° WSW 18:02:16 41° S 18:05:18 27° SE
SJ 16-02 2.8 18:01:13 10° N 18:04:08 23° NNE 18:04:08 23° NNE
COSMO-SKYMED 1 3.1 18:01:12 10° N 18:05:30 60° WNW 18:09:47 10° SSW
Cosmos 2074 Rocket 4.4 17:59:49 10° N 18:05:37 39° ENE 18:06:21 37° E
MOS 1 Rocket 3.2 18:01:42 10° NNE 18:06:16 60° E 18:11:05 10° S
Cosmos 2297 Rocket 3.9 18:01:40 10° NW 18:06:39 32° WSW 18:11:36 10° S
Cosmos 1076 Rocket 3.6 18:03:30 10° NNW 18:07:46 72° W 18:11:35 13° S
HJ-1C 3.6 18:07:27 54° SSW 18:08:03 70° WSW 18:11:27 10° NNW
Cosmos 1777 Rocket 3.9 18:04:22 10° NNW 18:09:34 66° ENE 18:10:50 49° ESE
COSMOS 2455 3.9 18:04:38 10° NW 18:10:03 32° NNE 18:12:00 27° NE
Cosmos 2369 Rocket 4.1 18:05:58 10° WNW 18:10:35 24° NNW 18:15:14 10° NNE
Cosmos 1980 Rocket 4.2 18:06:43 10° SSE 18:07:19 13° SSE 18:07:19 13° SSE
IRS-1A Rocket 4.2 18:10:35 42° ESE 18:12:17 60° ENE 18:17:43 10° NNW
Cosmos 883 Rocket 4.4 18:07:31 10° S 18:13:33 60° E 18:19:34 10° NNE
Aureole 3 Rocket 4.2 18:09:52 10° SSW 18:14:12 56° WNW 18:20:19 10° N
Cosmos 2315 Rocket 4.0 18:11:36 10° SSE 18:17:35 54° E 18:23:37 10° NNE
S3M 3.9 18:11:58 10° S 18:18:06 90° SSE 18:24:21 10° NNE
MOS 1 4.3 18:18:02 47° ESE 18:19:27 62° ENE 18:25:03 10° NNW
Cosmos 1302 Rocket 4.3 18:15:11 10° SW 18:20:26 67° WNW 18:25:46 10° NNE
Cosmos 2227 4.1 18:14:47 10° NNW 18:20:27 72° NE 18:21:44 53° ESE
Resurs 01 Rocket 3.4 18:24:28 20° NNE 18:24:28 20° NNE 18:26:16 10° N
Lacrosse 5 1.7 18:17:40 10° W 18:22:46 87° NNE 18:23:30 66° E
MetOp-A 4.1 18:22:01 55° ESE 18:22:51 63° ENE 18:28:10 10° NNW
ERBS 3.3 18:21:35 10° WNW 18:24:02 46° WNW 18:24:02 46° WNW
YAOGAN 1 4.1 18:21:18 10° SSW 18:25:17 35° W 18:29:19 10° NNW
Okean 3 Rocket 4.1 18:21:45 10° N 18:25:00 44° NNE 18:25:00 44° NNE
Cosmos 1766 Rocket 4.2 18:25:12 10° N 18:28:29 44° NNE 18:28:29 44° NNE
SPOT 3 Rocket 4.1 18:33:46 42° NE 18:33:46 42° NE 18:37:55 10° N
Cosmos 1455 4.1 18:29:50 10° SSW 18:39:19 - N 18:31:13 21° SSW
Meteor 2-3 Rocket 3.6 18:28:04 10° NNW 18:33:49 73° ENE 18:34:44 61° SE
RESURS DK-1 4.4 18:39:06 10° NNW 18:41:08 19° N 18:41:08 19° N
Cosmos 1943 Rocket 4.2 18:41:08 10° NW 18:44:55 18° N 18:47:32 14° NNE
Cosmos 2154 Rocket 4.4 18:40:36 10° N 18:45:45 44° NE 18:45:45 44° NE
Meteor 2-10 Rocket 4.0 18:42:05 10° SSW 18:47:15 58° WNW 18:52:18 10° N
Terra 4.3 18:50:47 11° NNE 18:50:47 11° NNE 18:51:04 10° NNE
Cosmos 2278 Rocket 3.8 18:48:58 10° NNW 18:53:21 22° NNE 18:53:39 22° NNE
SJ-6B 4.2 18:56:20 37° NNW 18:56:20 37° NNW 18:58:57 10° NNW
ATLAS 5 CENTAUR R/B 2.8 18:50:21 10° WNW 18:54:51 38° N 18:55:00 38° N
Cosmos 2151 3.8 18:52:15 10° NNW 18:56:03 48° W 18:56:03 48° W
ARGOS 4.2 18:54:41 13° SSW 18:59:19 44° W 19:04:32 10° NNW
Cosmos 1992 Rocket 4.1 18:54:12 10° SW 18:59:24 73° WNW 18:59:48 69° NNW
CZ-2C R/B 4.2 18:53:56 10° NNE 18:56:10 25° NNE 18:56:10 25° NNE
SL-08 RB Rocket 4.5 19:00:38 46° WSW 19:01:01 47° W 19:05:24 10° NNW
Cosmos 2369 4.0 18:58:40 10° SSW 19:03:11 57° SSW 19:03:11 57° SSW
Geosat 4.5 19:06:43 54° SW 19:06:43 54° SW 19:10:37 10° SW
Cosmos 1844 Rocket 3.4 19:00:47 10° NNW 19:05:18 43° NNE 19:05:18 43° NNE
CZ-4 R/B 4.5 19:05:00 10° WSW 19:06:42 12° W 19:08:23 10° WNW
Cosmos 1656 4.3 19:02:12 10° SW 19:07:43 55° NW 19:10:04 33° NNE
Ariane Rocket 3.4 19:07:50 60° WSW 19:08:02 60° WSW 19:13:07 10° NNW
H-2A R/B 3.9 19:03:34 10° SSW 19:08:20 31° W 19:13:11 10° NNW
Cosmos 2263 Rocket 2.6 19:11:34 10° NW 19:17:09 58° WSW 19:17:16 58° WSW
SeaSat 1 4.4 19:26:16 21° SW 19:27:41 24° WSW 19:31:40 10° NW
CZ-4C R/B 2.7 19:22:34 10° NW 19:29:23 80° SW 19:29:36 79° SSW
Cosmos 2184 Rocket 4.1 19:24:55 10° NNW 19:31:04 73° W 19:31:04 73° W
Cosmos 1697 Rocket 3.3 19:26:57 10° SW 19:31:25 51° W 19:31:25 51° W
USA 215 3.8 19:39:00 48° SW 19:39:00 48° SW 19:45:08 10° WNW
SJ 16-02 3.6 19:39:29 10° NNW 19:41:07 22° NNW 19:41:07 22° NNW
ATLAS 2AS CENTAUR R/B 3.5 19:45:16 10° NW 19:52:16 43° WSW 19:52:43 42° SW
Cosmos 2369 Rocket 4.3 19:52:42 10° NW 19:56:40 19° N 19:57:03 19° N
COSMOS 2455 3.8 19:51:01 10° NW 19:55:08 42° NNW 19:55:08 42° NNW
Resurs 01 Rocket 4.2 20:02:02 17° NNW 20:02:02 17° NNW 20:03:08 10° NNW
Lacrosse 5 4.0 20:00:43 10° WNW 20:02:41 23° W 20:02:41 23° W
Cosmos 1943 Rocket 4.4 20:26:36 10° NNW 20:29:01 18° N 20:29:01 18° N
Cosmos 2278 Rocket 4.2 20:33:16 10° NNW 20:35:29 23° NNW 20:35:29 23° NNW
ATLAS 5 CENTAUR R/B 4.3 20:35:08 10° NW 20:36:32 19° NW 20:36:32 19° NW
ATLAS CENTAUR R/B 4.4 20:32:30 10° WNW 20:55:04 87° WSW 20:55:04 87° WSW
